Location: Recife
(8.0585°S, 34.8848°W)
Time: 08:09:14
(UTC-03:00)

Courier 1B - Pass Details

Date: 16 April 2026
Orbit: 962 x 1209 km, 28.3° (Epoch: 13 May)

Event Time Altitude Azimuth Distance (km) Brightness Sun altitude
Rises 12:07:58 0° 228° (SW) 4,063 10.7 68.0°
Reaches altitude 10° 12:11:27 10° 216° (SW) 3,068 10.2 67.5°
Maximum altitude 12:17:29 25° 163° (SSE) 2,083 9.3 66.6°
Drops below altitude 10° 12:23:15 10° 109° (ESE) 2,920 9.9 65.7°
Sets 12:26:27 0° 96° (E) 3,830 10.4 65.2°
